FW8109 Weather Reports


time (UTC)temp
C
wind
direction
speed
KPH
gust
KPH
rain 1hr
cm
rain 24hr
cm
rain mn
cm
humidity
%
barometer
mb
20260510071701 20 0 0.0 4.8 0.00 0.00 0.00 78 1026.7
20260510070701 20 0 0.0 4.8 0.00 0.00 0.00 79 1026.6
20260510065658 20 126 1.6 4.8 0.00 0.00 0.00 80 1026.6
20260510064658 20 195 1.6 4.8 0.00 0.00 0.00 79 1026.5
20260510063658 20 153 1.6 4.8 0.00 0.00 0.00 78 1026.5
20260510063137 20 95 1.6 8.0 0.00 0.00 0.00 78 1026.4
20260510061655 20 128 1.6 8.0 0.00 0.00 0.00 77 1026.3
20260510055654 21 354 1.6 8.0 0.00 0.00 0.00 75 1026.0
20260510054656 21 130 1.6 8.0 0.00 0.00 0.00 74 1026.0
20260510053656 21 211 1.6 6.4 0.00 0.00 0.00 75 1025.9
20260510052655 21 0 1.6 4.8 0.00 0.00 0.00 74 1025.8
20260510052128 21 216 3.2 9.7 0.00 0.00 0.00 73 1025.8
20260510050650 22 145 3.2 8.0 0.00 0.00 0.00 72 1025.7
20260510045650 22 112 3.2 12.9 0.00 0.00 0.00 71 1025.7
20260510045133 22 226 3.2 11.3 0.00 0.00 0.00 69 1025.7
20260510043651 21 114 3.2 9.7 0.00 0.00 0.00 71 1025.6
20260510042651 21 18 3.2 9.7 0.00 0.00 0.00 71 1025.6
20260510041649 21 89 3.2 11.3 0.00 0.00 0.00 70 1025.5
20260510040649 21 132 3.2 11.3 0.00 0.00 0.00 71 1025.5
20260510034649 21 278 3.2 11.3 0.00 0.00 0.00 68 1025.5
20260510033649 22 39 3.2 9.7 0.00 0.00 0.00 66 1025.5
20260510032646 21 315 3.2 9.7 0.00 0.00 0.00 66 1025.4
20260510031646 21 114 3.2 11.3 0.00 0.00 0.00 66 1025.5
20260510030646 21 28 3.2 11.3 0.00 0.00 0.00 67 1025.7
20260510025646 21 220 3.2 12.9 0.00 0.00 0.00 67 1025.8
20260510024648 21 101 3.2 11.3 0.00 0.00 0.00 66 1025.8
20260510023647 21 138 3.2 12.9 0.00 0.00 0.00 67 1025.9
20260510022644 21 154 3.2 11.3 0.00 0.00 0.00 67 1026.0
20260510021644 21 160 3.2 9.7 0.00 0.00 0.00 70 1026.1
20260510020644 21 305 3.2 8.0 0.00 0.00 0.00 69 1026.3
20260510015645 20 0 3.2 9.7 0.00 0.00 0.00 69 1026.3
20260510014645 20 245 3.2 14.5 0.00 0.00 0.00 68 1026.5
20260510013645 20 0 3.2 9.7 0.00 0.00 0.00 67 1026.6
20260510012642 20 137 3.2 9.7 0.00 0.00 0.00 66 1026.6
20260510011642 20 164 3.2 9.7 0.00 0.00 0.00 66 1026.7
20260510011127 20 179 3.2 9.7 0.00 0.00 0.00 65 1026.7
20260510005644 20 140 1.6 9.7 0.00 0.00 0.00 64 1026.9
20260510004644 21 143 3.2 9.7 0.00 0.00 0.00 63 1027.0
20260510003640 20 148 3.2 8.0 0.00 0.00 0.00 65 1027.0
20260510002640 21 103 1.6 9.7 0.00 0.00 0.00 64 1027.0
20260510001641 20 236 1.6 6.4 0.00 0.00 0.00 68 1027.0
20260510000640 20 27 1.6 4.8 0.00 0.00 0.00 69 1027.0
20260509235640 20 0 1.6 4.8 0.00 0.00 0.00 71 1026.9
20260509234640 18 0 1.6 3.2 0.00 0.00 0.00 74 1026.9
20260509234119 18 170 1.6 4.8 0.00 0.00 0.00 76 1026.9
20260509232639 17 0 1.6 4.8 0.00 0.00 0.00 75 1026.8
20260509230638 16 0 0.0 3.2 0.00 0.00 0.00 85 1026.8
20260509230122 15 0 1.6 6.4 0.00 0.00 0.00 90 1026.8
20260509224639 14 97 1.6 3.2 0.00 0.00 0.00 94 1026.7
20260509223639 13 0 1.6 4.8 0.00 0.00 0.00 97 1026.7
20260509222637 13 95 1.6 3.2 0.00 0.00 0.00 97 1026.7
20260509221637 13 61 0.0 3.2 0.00 0.00 0.00 97 1026.7
20260509220638 12 105 0.0 3.2 0.00 0.00 0.00 97 1026.7
20260509215638 12 48 0.0 3.2 0.00 0.00 0.00 97 1026.6
20260509214636 11 0 0.0 3.2 0.00 0.00 0.00 97 1026.5
20260509213635 10 70 0.0 1.6 0.00 0.00 0.00 97 1026.4
20260509212635 10 0 0.0 1.6 0.00 0.00 0.00 97 1026.3
20260509211632 9 0 0.0 1.6 0.00 0.00 0.00 97 1026.2
20260509211112 9 0 0.0 1.6 0.00 0.00 0.00 97 1026.1
20260509205632 8 0 0.0 1.6 0.00 0.00 0.00 96 1026.0
20260509204632 8 0 0.0 1.6 0.00 0.00 0.00 96 1025.9
20260509203632 8 0 0.0 1.6 0.00 0.00 0.00 96 1025.8
20260509202632 8 0 0.0 1.6 0.00 0.00 0.00 96 1025.7
20260509201630 8 0 0.0 1.6 0.00 0.00 0.00 96 1025.5
20260509200629 8 0 0.0 0.0 0.00 0.00 0.00 96 1025.4
20260509200113 8 0 0.0 1.6 0.00 0.00 0.00 96 1025.2
20260509195111 8 0 0.0 1.6 0.00 0.00 0.00 96 1025.1
20260509193628 8 67 0.0 0.0 0.00 0.00 0.00 96 1025.0
20260509192628 8 0 0.0 1.6 0.00 0.00 0.00 96 1024.9
20260509191627 8 31 0.0 1.6 0.00 0.00 0.00 96 1024.9
20260509190627 8 0 0.0 0.0 0.00 0.00 0.00 96 1024.8
20260509185627 8 0 0.0 1.6 0.00 0.00 0.00 96 1024.7
20260509185101 8 0 0.0 1.6 0.00 0.00 0.00 96 1024.6
20260509183624 8 0 0.0 1.6 0.00 0.00 0.00 96 1024.4
20260509182624 8 355 0.0 1.6 0.00 0.00 0.00 96 1024.4
20260509181624 8 0 0.0 1.6 0.00 0.00 0.00 96 1024.3
20260509180624 8 0 0.0 0.0 0.00 0.00 0.00 96 1024.2
20260509175625 8 0 0.0 1.6 0.00 0.00 0.00 96 1024.1
20260509174624 8 0 0.0 1.6 0.00 0.00 0.00 96 1024.0
20260509173620 8 0 0.0 1.6 0.00 0.00 0.00 96 1023.9
20260509172622 8 141 0.0 1.6 0.00 0.00 0.00 96 1023.9
20260509171621 8 0 0.0 1.6 0.00 0.00 0.00 96 1023.9
20260509170622 8 0 0.0 1.6 0.00 0.00 0.00 96 1023.9
20260509165622 9 0 0.0 0.0 0.00 0.00 0.00 96 1023.9
20260509164620 8 0 0.0 1.6 0.00 0.00 0.00 96 1023.9
20260509164057 8 35 0.0 1.6 0.00 0.00 0.00 96 1023.9
20260509162620 8 0 0.0 1.6 0.00 0.00 0.00 96 1024.0
20260509161619 8 0 0.0 1.6 0.00 0.00 0.00 95 1024.0
20260509160620 8 0 0.0 0.0 0.00 0.00 0.00 95 1024.1
20260509155617 8 357 0.0 0.0 0.00 0.00 0.00 95 1024.1
20260509154618 8 0 0.0 0.0 0.00 0.00 0.00 95 1024.0
20260509153617 8 0 0.0 0.0 0.00 0.00 0.00 95 1024.0
20260509152618 8 0 0.0 1.6 0.00 0.00 0.00 95 1024.1
20260509151619 8 0 0.0 0.0 0.00 0.00 0.00 95 1024.0
20260509151057 9 70 0.0 1.6 0.00 0.00 0.00 95 1024.0
20260509145615 9 0 0.0 1.6 0.00 0.00 0.00 95 1024.0
20260509145100 9 0 0.0 0.0 0.00 0.00 0.00 95 1023.9
20260509143612 9 0 0.0 0.0 0.00 0.00 0.00 95 1023.9
20260509142612 9 0 0.0 1.6 0.00 0.00 0.00 95 1024.0
20260509141614 10 0 0.0 0.0 0.00 0.00 0.00 95 1024.0
20260509140614 9 0 0.0 1.6 0.00 0.00 0.00 95 1024.0
20260509135613 9 0 0.0 1.6 0.00 0.00 0.00 94 1024.0
20260509134610 9 0 0.0 0.0 0.00 0.00 0.00 95 1024.0
20260509134050 9 0 0.0 1.6 0.00 0.00 0.00 94 1024.0
20260509132611 9 0 0.0 1.6 0.00 0.00 0.00 94 1024.0
20260509131611 8 0 0.0 0.0 0.00 0.00 0.00 94 1024.0
20260509130610 8 0 0.0 1.6 0.00 0.00 0.00 93 1024.1
20260509130051 8 0 0.0 0.0 0.00 0.00 0.00 93 1024.1
20260509124609 9 0 0.0 1.6 0.00 0.00 0.00 93 1024.0
20260509123609 8 0 0.0 1.6 0.00 0.00 0.00 93 1024.0
20260509122608 9 0 0.0 0.0 0.00 0.00 0.00 93 1024.0
20260509121609 9 0 0.0 1.6 0.00 0.00 0.00 93 1024.0
20260509120609 9 0 0.0 1.6 0.00 0.00 0.00 92 1024.0
20260509115610 9 0 0.0 1.6 0.00 0.00 0.00 92 1024.1
20260509114607 10 0 0.0 1.6 0.00 0.00 0.00 92 1024.0
20260509113606 10 0 0.0 0.0 0.00 0.00 0.00 92 1024.1
20260509112607 10 0 0.0 0.0 0.00 0.00 0.00 92 1024.0
20260509111607 10 0 0.0 1.6 0.00 0.00 0.00 92 1024.0
20260509110607 10 0 0.0 1.6 0.00 0.00 0.00 91 1024.0
20260509105607 10 0 0.0 1.6 0.00 0.00 0.00 91 1023.9
20260509104604 10 0 0.0 1.6 0.00 0.00 0.00 91 1023.9
20260509103605 11 0 0.0 1.6 0.00 0.00 0.00 91 1023.9
20260509102605 11 0 0.0 1.6 0.00 0.00 0.00 91 1023.8
20260509101605 11 0 0.0 1.6 0.00 0.00 0.00 91 1023.8
20260509100606 11 0 0.0 1.6 0.00 0.00 0.00 90 1023.7
20260509100046 11 0 0.0 1.6 0.00 0.00 0.00 90 1023.6
20260509094603 11 0 0.0 1.6 0.00 0.00 0.00 89 1023.6
20260509092603 11 0 0.0 1.6 0.00 0.00 0.00 89 1023.5
20260509092040 11 166 0.0 1.6 0.00 0.00 0.00 88 1023.5
20260509090600 12 165 0.0 1.6 0.00 0.00 0.00 87 1023.4
20260509085600 12 0 0.0 1.6 0.00 0.00 0.00 87 1023.4
20260509084601 12 0 0.0 1.6 0.00 0.00 0.00 86 1023.3
20260509081601 13 0 0.0 1.6 0.00 0.00 0.00 83 1023.0
20260509080602 13 0 0.0 1.6 0.00 0.00 0.00 83 1022.9
20260509075558 13 165 0.0 1.6 0.00 0.00 0.00 82 1022.8
20260509074558 14 0 0.0 3.2 0.00 0.00 0.00 80 1022.7
20260509073559 15 0 0.0 1.6 0.00 0.00 0.00 78 1022.6
20260509072559 15 0 0.0 1.6 0.00 0.00 0.00 77 1022.5